Powrót do katalogu

SDA_1667

AktywnyMilitariaPO
NORAD 65977·PAYLOAD·🇺🇸 United States

Wystrzelony Oct 15, 2025 z Vandenberg Space Force Base

Loading…

Następne Przeloty (najbliższe 24 godziny)

TLE

ŚwieżeSource: Space-Track

Epoka: Sep 14, 2026, 14:55 UTC

1 65977U 25230D   26257.62181433  .00000110  00000-0  92165-4 0  9995
2 65977  81.2989 129.6133 0001354  66.3713 293.7584 13.81447156 46139

Śledź SDA_1667 w czasie rzeczywistym z AllMySat

Download on the App Store